SCP
2 2 3 2 2 2 2 2 2 2 2 2 2 2 1 1 1 0 0 0 0 0 0 0 0 1 1 1 1 1 1 1 1 1 1 0 0 1 1 1 1 1 1
3 3 3 2 2 2 2 2 2 2 2 2 2 2 2 1 1 1 1 1 1 0 0 0 0 1 1 1 1 0 0 1 1 1 1 1 1 1 1 1 1 1 1
4 3 3 3 3 2 2 2 2 2 2 2 2 2 2 2 1 1 1 1 1 1 0 0 0 0 0 1 1 1 0 0 1 1 1 1 1 1 1 1 1 1 1
4 3 2 3 3 2 2 2 2 2 2 2 2 2 2 2 2 2 1 1 1 1 1 0 0 0 1 1 1 1 1 1 1 1 1 1 1 1 1 1 1 1 1
3 3 2 2 3 3 2 2 2 2 2 2 2 2 2 2 2 2 2 2 2 1 1 1 0 0 1 1 1 1 1 1 1 1 1 1 2 2 2 2 2 2 2
3 3 2 2 3 3 2 2 2 2 2 2 2 2 2 2 2 2 2 2 2 2 1 1 1 1 1 1 1 1 1 1 1 1 1 1 2 3 2 2 2 2 1
3 3 3 2 3 3 3 2 2 2 2 2 2 2 2 2 2 2 2 2 2 2 1 1 1 1 1 1 1 1 1 1 1 1 2 2 2 2 2 2 1 1 1
3 3 3 3 3 3 3 3 3 2 2 2 2 2 2 2 2 2 2 2 1 1 1 1 1 1 1 1 1 1 1 1 1 2 2 2 2 2 2 2 1 1 1
3 3 3 3 3 4 4 4 3 2 2 2 2 2 2 2 2 2 2 2 1 1 1 1 2 1 1 1 1 1 1 1 2 2 2 2 2 2 2 1 1 1 1
3 3 3 3 3 4 5 5 4 3 2 2 2 2 2 2 2 2 2 2 2 2 2 2 2 1 1 1 1 1 1 1 1 1 1 1 2 2 2 2 2 2 2
4 4 4 4 4 5 5 5 3 2 2 2 2 2 3 3 3 3 2 2 2 2 2 2 2 2 1 1 1 1 1 1 1 1 1 1 1 1 2 2 2 2 2
5 5 5 5 5 5 5 4 3 2 2 2 3 3 4 4 4 3 3 2 2 2 2 2 2 2 1 1 1 1 1 1 1 1 1 1 1 1 1 1 2 2 2
5 5 5 5 6 6 5 4 3 2 2 3 3 4 4 5 4 4 3 3 3 3 3 4 3 2 2 1 1 1 1 1 1 1 1 1 1 1 1 1 1 1 1
4 4 4 6 7 7 5 3 3 4 4 4 4 5 5 5 4 3 3 3 4 4 4 4 4 2 2 2 2 2 1 1 2 2 1 1 1 1 1 1 1 1 1
3 3 4 6 7 7 4 3 3 5 6 6 6 6 5 4 4 4 4 4 4 4 4 4 3 3 2 2 2 2 2 2 2 2 2 1 1 1 1 1 1 1 1
3 3 4 5 6 6 4 4 5 7 8 8 7 6 5 4 5 5 5 5 4 4 4 4 3 3 2 2 1 1 2 2 2 2 1 1 1 0 0 0 0 0 1
3 4 4 5 5 5 5 6 8 9 9 8 7 5 5 5 6 6 6 5 5 5 4 4 4 3 2 1 0 1 1 2 2 1 1 1 0 0 0 0 0 0 0
4 4 5 5 5 5 5 7 9 9 9 7 6 5 5 6 6 6 6 6 6 6 5 4 4 4 3 1 0 0 1 1 1 1 1 0 0 0 0 0 0 0 0
4 5 5 5 5 5 5 6 8 9 9 8 6 5 5 5 5 6 7 7 7 7 6 5 4 4 3 1 0 0 0 1 1 0 0 0 0 0 0 0 0 0 0
5 5 6 6 6 5 5 6 8 10 11 9 7 5 4 4 5 6 7 8 7 7 6 5 4 4 3 1 0 0 0 1 1 0 0 0 0 0 0 0 0 0 0
5 5 6 6 6 5 5 5 7 9 9 8 6 5 4 4 5 6 7 7 7 7 6 5 4 3 2 1 0 0 0 1 1 1 0 0 0 0 0 0 0 0 0
6 6 6 6 6 6 6 6 7 7 7 6 5 5 4 4 5 6 7 7 7 7 6 4 3 2 1 1 0 0 0 0 1 1 1 0 0 0 0 0 0 0 0
8 9 9 8 7 7 7 7 7 6 5 4 4 5 5 4 5 6 7 7 6 5 5 3 2 1 1 1 1 0 0 0 1 1 1 0 0 0 0 0 0 0 0
10 11 11 10 10 9 8 7 6 5 5 4 4 4 4 4 5 6 6 5 4 4 3 2 1 1 1 1 1 1 0 0 0 1 1 0 0 0 0 0 0 0 0
8 9 10 10 10 9 7 5 4 4 3 3 3 3 4 4 4 4 4 3 2 2 1 1 1 1 1 1 1 1 0 0 0 1 1 1 1 0 0 0 0 0 0
6 6 7 7 7 7 5 4 3 3 3 3 3 3 3 4 4 3 2 1 1 1 0 0 0 0 0 1 1 0 0 0 0 1 2 2 1 1 1 1 1 1 1
Wind_Speed
9 8 8 8 8 8 8 8 7 7 5 4 4 4 3 3 2 3 3 3 3 3 4 4 2 3 3 3 4 4 4 4 3 3 4 4 5 4 4 5 4 5 5
10 9 9 9 9 8 8 8 8 7 7 4 3 2 2 2 2 2 1 3 3 3 4 4 3 3 3 4 4 4 4 4 3 3 4 3 3 4 4 4 4 5 4
11 11 10 9 9 8 8 7 7 6 7 5 4 3 3 3 2 2 2 2 3 3 3 3 4 3 4 4 4 5 5 4 4 3 3 3 2 2 3 4 3 3 3
11 11 10 9 9 8 7 7 6 6 6 6 4 5 3 3 2 2 1 2 2 3 3 4 4 4 4 4 6 4 4 5 4 3 4 5 4 3 2 2 3 3 4
11 10 10 9 8 8 7 7 6 6 5 5 5 5 4 3 2 1 1 2 1 2 3 3 3 4 4 4 4 3 5 4 4 4 4 4 4 6 4 4 3 2 3
10 9 9 9 8 8 7 7 7 6 5 5 5 5 4 3 2 2 2 2 1 1 1 2 3 3 3 3 4 4 5 5 5 4 4 4 4 4 4 4 4 3 2
11 10 10 10 9 9 8 7 7 6 6 5 5 4 4 3 3 3 2 2 1 1 1 1 1 2 2 2 3 3 4 4 4 4 3 4 4 3 3 4 4 3 3
11 11 11 10 10 10 9 8 7 6 6 5 4 4 3 3 2 2 2 1 1 1 0 0 1 1 2 2 1 2 2 2 3 3 3 3 3 3 3 3 3 3 3
11 11 11 10 10 9 9 8 8 7 6 5 4 3 2 2 1 1 1 0 0 0 1 1 1 1 1 2 2 1 2 1 2 2 2 2 3 3 3 2 3 3 3
11 11 10 10 9 9 8 8 7 6 5 5 4 3 2 2 1 1 2 2 2 2 2 2 2 2 2 2 2 1 2 2 2 2 3 3 2 2 2 2 3 2 2
11 11 10 10 10 9 9 8 7 6 5 5 4 3 3 3 3 2 3 3 3 3 3 3 3 3 3 3 2 2 2 2 2 3 3 3 3 3 2 2 2 1 1
10 10 10 10 10 9 9 8 8 7 6 5 5 4 4 4 3 4 4 4 4 3 3 3 3 4 4 4 3 3 3 3 3 4 3 3 3 3 3 2 1 1 1
10 10 10 10 10 9 9 9 8 8 7 7 6 6 5 5 4 5 4 4 4 4 4 4 4 4 4 4 4 4 4 4 4 4 4 4 4 3 3 3 2 2 2
11 11 10 10 10 9 9 9 8 8 8 7 7 6 6 5 5 5 5 5 4 4 5 4 5 5 5 5 4 4 4 4 5 5 5 6 6 5 4 3 3 3 2
12 11 11 11 10 10 9 8 8 8 8 7 7 7 6 6 6 6 5 5 5 6 5 5 6 6 5 6 5 4 5 5 5 6 6 7 9 11 8 6 5 4 3
12 12 12 11 11 10 10 9 9 8 8 8 7 7 6 6 6 6 6 6 6 6 6 6 6 7 7 8 9 5 5 5 6 6 5 6 8 10 11 12 12 10 6
12 12 12 11 10 10 10 10 9 9 8 8 7 7 6 6 6 6 6 6 7 7 7 7 7 8 8 8 8 7 5 6 6 6 5 5 7 6 7 8 9 11 11
12 12 12 12 11 11 10 10 10 9 9 8 8 7 7 7 7 6 6 6 6 6 6 6 7 7 8 7 6 4 6 7 7 7 6 7 7 8 6 7 8 8 8
10 10 11 12 12 11 11 11 10 9 9 9 8 7 7 7 7 7 7 6 6 6 6 6 6 7 7 7 6 4 5 6 8 8 9 8 8 9 7 5 6 7 7
9 10 11 12 12 11 11 11 10 9 9 8 8 7 7 7 7 7 7 6 6 6 6 6 6 6 7 7 7 6 4 6 6 7 8 11 9 8 8 5 5 6 5
10 11 11 10 10 11 11 10 9 9 8 8 8 7 7 7 7 7 6 6 6 6 6 6 6 6 6 6 7 8 3 4 5 5 6 7 8 8 7 6 6 4 2
11 11 10 9 9 10 10 10 9 9 9 9 8 8 7 7 7 7 7 6 6 7 6 5 5 5 5 6 6 7 7 5 5 5 6 7 6 6 7 6 5 5 5
10 10 10 10 9 9 9 10 9 10 10 9 9 8 8 6 7 7 7 6 5 4 5 4 4 5 5 6 5 5 5 5 4 6 8 6 3 4 5 4 3 4 1
9 9 10 10 9 9 8 8 9 10 10 9 9 8 8 7 6 5 5 4 4 4 4 4 4 4 4 4 4 5 5 6 5 5 6 5 2 2 3 2 1 3 4
8 8 8 9 9 9 8 8 9 10 10 9 8 8 7 7 6 5 3 2 4 2 1 3 3 3 4 4 4 2 2 2 3 2 3 3 3 2 2 3 3 2 2
8 8 8 9 9 9 9 8 8 9 10 9 8 7 7 6 6 7 6 10 7 7 7 7 4 5 6 6 4 4 4 3 2 2 2 2 1 1 2 2 2 2 2
Wind_Direction
186 185 189 194 194 198 198 201 201 194 200 205 214 212 212 220 226 230 230 236 239 229 240 256 221 238 238 254 253 254 243 247 253 263 253 236 227 225 222 229 228 221 224
184 182 188 190 193 195 197 197 200 196 200 202 218 233 241 227 223 250 229 237 228 235 234 243 245 233 243 248 257 254 262 259 238 261 272 257 217 214 218 217 221 232 227
190 186 189 190 188 191 196 196 194 192 200 199 202 205 208 228 217 224 224 237 229 227 255 244 254 250 249 242 249 250 247 259 256 249 260 274 270 269 204 210 223 233 244
191 188 187 186 187 188 186 185 183 189 193 199 209 215 222 232 232 235 228 236 224 235 234 236 242 252 258 254 250 239 252 253 255 246 244 261 292 281 266 225 213 216 234
186 185 184 180 181 180 178 177 178 185 189 198 201 215 228 226 216 211 209 247 231 238 241 237 242 249 259 262 269 272 261 253 256 256 255 252 249 247 252 259 250 238 239
177 174 174 170 173 172 174 170 169 178 187 192 197 211 225 229 231 224 213 218 211 230 247 249 255 257 262 255 251 253 250 259 263 265 262 258 259 255 254 261 258 258 259
173 170 170 168 170 172 171 169 166 173 181 184 193 203 213 214 223 238 215 240 244 223 218 272 274 285 281 272 267 253 264 261 265 267 270 270 270 283 268 260 264 265 265
172 171 169 168 170 171 171 169 167 171 174 179 186 197 210 219 210 218 258 236 274 299 16 282 288 299 302 296 288 272 259 271 277 281 288 285 284 283 272 265 267 269 260
170 169 166 166 167 169 168 168 166 167 169 169 168 176 194 215 212 186 223 204 34 10 70 84 60 20 359 333 317 326 324 330 306 304 303 298 306 299 292 280 261 260 272
167 166 162 164 162 160 156 158 161 160 158 160 165 158 154 152 160 145 80 59 55 40 52 60 57 47 37 26 11 5 18 12 5 352 355 337 333 329 312 292 273 255 260
165 163 160 158 155 153 150 152 151 149 149 148 146 136 130 126 120 101 92 83 72 69 67 64 62 54 50 44 36 25 24 23 18 2 2 356 336 328 320 308 297 285 247
157 155 153 151 153 152 150 149 148 147 144 138 132 126 120 114 107 95 89 89 84 77 72 69 66 58 51 47 40 35 32 27 19 9 4 358 354 352 337 340 344 7 52
152 150 151 152 153 150 147 145 148 145 141 134 130 123 118 108 98 90 87 88 88 79 73 68 67 60 55 55 51 47 44 39 34 26 22 16 15 11 13 3 21 38 73
156 155 153 152 149 147 147 147 145 143 140 137 131 124 118 110 105 97 90 89 89 83 75 71 67 65 62 59 57 61 60 55 51 46 42 35 31 23 20 36 39 43 65
162 161 159 152 152 150 150 149 146 144 141 137 129 123 120 115 111 104 97 92 88 85 80 77 72 67 64 49 47 67 68 63 65 61 59 58 53 46 37 36 40 44 50
167 164 160 156 158 156 156 154 151 146 143 138 130 126 125 119 112 105 101 95 88 84 82 78 75 69 61 42 32 33 74 69 67 64 64 75 67 66 64 58 51 42 41
169 165 161 161 160 159 156 154 151 148 143 136 132 133 132 121 113 110 105 99 95 91 86 83 80 78 65 48 41 25 61 72 66 63 58 61 64 64 73 81 77 62 50
167 165 162 159 158 154 152 149 147 146 142 139 137 136 131 125 120 114 105 99 95 94 90 86 85 83 70 50 41 24 77 74 71 66 60 62 60 45 39 69 72 66 55
163 160 159 155 152 152 151 150 149 147 146 144 144 140 136 131 128 122 115 110 107 102 98 90 86 86 79 49 28 3 92 86 77 70 62 58 66 31 13 68 77 80 86
153 152 150 149 150 151 151 153 151 150 148 144 142 140 138 136 131 125 122 117 114 110 106 96 89 87 82 53 23 348 92 94 95 90 82 62 48 28 11 62 73 74 67
146 148 147 149 149 150 154 156 152 149 143 140 138 138 135 133 132 129 125 127 124 116 109 107 100 91 84 76 41 12 48 86 92 91 85 73 49 42 28 37 60 40 360
146 150 148 146 147 153 159 158 151 144 140 139 139 138 139 140 136 133 130 130 131 131 128 126 120 112 101 76 66 44 33 21 80 79 84 85 73 60 48 52 27 326 303
146 149 147 143 146 155 163 157 149 145 145 145 144 142 141 137 139 141 140 144 154 152 146 146 136 125 120 113 101 84 61 37 68 78 76 88 111 133 101 69 335 305 18
145 147 148 149 150 154 156 150 148 150 150 148 145 146 146 143 140 147 151 153 155 154 154 147 136 131 136 133 142 145 140 143 132 124 129 149 148 123 95 147 130 56 39
143 149 153 153 151 149 147 146 151 153 152 150 150 152 150 144 140 125 84 107 85 55 116 142 142 143 134 92 41 30 96 91 91 146 157 152 140 129 104 90 67 62 82
147 153 155 154 150 147 146 148 156 160 158 156 159 159 153 151 149 138 117 55 63 64 51 39 44 89 91 111 98 75 60 49 344 271 141 113 91 76 77 81 94 84 57